Flag for Canada Weather past 2 weeks in New Westminster, British Columbia, Canada

Now
58 °F

Cool.


Feels Like: 59 °F
Forecast: 49 / 58 °F
Wind: 3 mph from Southwest

Location: P. Meadows Coastal Station

Current Time: Sep 3, 2015 at 12:25:16 PM

Latest Report: Sep 3, 2015 at 12:00 PM


Visibility: N/A

Pressure: 30.01 "Hg

Humidity: 69%

Dew point: 48 °F

Location of New WestminsterLocation

Historic Weather in New Westminster — Graph

°F

New Westminster temperature yesterday

Maximum temperature yesterday: 58 °F (at 12:00 PM)
Minimum temperature yesterday: 49 °F (at 6:00 AM)
Average temperature yesterday: 54 °F

Past Weeks' High & Low Weather Summary

 TemperatureHumidityPressure
High83 °F (Aug 19, 4:00 PM)99% (Aug 22, 2:00 AM)30.13 "Hg (Aug 22, 2:00 AM)
Low49 °F (Sep 2, 6:00 AM)24% (Aug 27, 4:00 PM)29.46 "Hg (Aug 29, 6:00 AM)
Average63 °F73%29.91 "Hg
* Reported Aug 19 11:00 AM — Sep 3 11:00 AM, New Westminster, Weather by CustomWeather, © 2015

Note: Actual official high and low records may vary slightly from our data, if they occured in-between our weather recording intervals... More about our weather records

Advertising

New Westminster weather history for previous 24 hours

 ConditionsComfort  
Time TempWeatherWind HumidityBarometerVisibility
11:00 AM
Thu, Sep 3
56 °FCool.1 mph80%30.01 "HgN/A
10:00 AM56 °FCool.1 mph78%30.00 "HgN/A
9:00 AM55 °FCool.1 mph86%30.00 "HgN/A
8:00 AM53 °FCool.5 mph89%30.00 "HgN/A
7:00 AM51 °FCool.2 mph93%29.98 "HgN/A
6:00 AM51 °FCool.2 mph91%29.98 "HgN/A
5:00 AM51 °FCool.2 mph93%29.97 "HgN/A
4:00 AM51 °FCool.3 mph91%29.96 "HgN/A
3:00 AM51 °FCool.2 mph95%29.95 "HgN/A
2:00 AM51 °FCool.3 mph94%29.94 "HgN/A
1:00 AM52 °FCool.2 mph93%29.94 "HgN/A
12:00 AM52 °FCool.2 mph92%29.94 "HgN/A
11:00 PM
Wed, Sep 2
53 °FCool.2 mph87%29.94 "HgN/A
10:00 PM53 °FCool.No wind86%29.95 "HgN/A
9:00 PM53 °FCool.3 mph89%29.93 "HgN/A
8:00 PM53 °FCool.7 mph84%29.93 "HgN/A
7:00 PM54 °FCool.6 mph86%29.93 "HgN/A
6:00 PM55 °FCool.8 mph81%29.93 "HgN/A
5:00 PM56 °FCool.7 mph78%29.93 "HgN/A
4:00 PM57 °FCool.3 mph77%29.93 "HgN/A
3:00 PM58 °FCool.2 mph67%29.92 "HgN/A
2:00 PM58 °FCool.5 mph71%29.91 "HgN/A
1:00 PM57 °FCool.2 mph81%29.90 "HgN/A
12:00 PM58 °FCool.2 mph70%29.89 "HgN/A
Weather by CustomWeather, © 2015

See weather overviewHow to use our weather pages